Terminal Aerodrome Forecast
Issued by NWS Pittsburgh, PA

Current Version | Previous Version | Graphics & Text | Print | Product List | Glossary On
Versions: 1 2 3 4 5 6 7 8 9 10 11 12 13 14 15 16 17 18 19 20 21 22 23 24 25 26 27 28 29 30 31
000
FTUS41 KPBZ 131000 AAB
TAFPIT
TAF AMD
KPIT 131000Z 1310/1412 VRB05KT P6SM OVC050
     FM131100 VRB05KT P6SM OVC025
      TEMPO 1311/1314 6SM -RA OVC010
     FM131700 31010KT P6SM BKN050
     FM140100 VRB05KT P6SM BKN025=

USA.gov is the U.S. government's official web portal to all federal, state and local government web resources and services.